This demonstration page uses our WeatherBlox Daily Observations layout. Learn more.

Left ArrowRight Arrow

Hourly Observations for July 27, 2021

Temp ( °F °C ) Dew Point ( °F °C ) Humidity (%) Winds ( mph kmh ) Pressure ( in mb ) Visibility ( mi km ) Precip ( " mm )
12:53 am 00:53 Clear 80 26.7 56 13.3 44 44 E 3 6 29.91 1013 10 16 0.00 0.00
1:53 am 01:53 Clear 77 25 56 13.3 48 48 Calm 29.91 1013 10 16 0.00 0.00
2:53 am 02:53 Clear 73 22.8 56 13.3 55 55 E 3 6 29.90 1013 10 16 0.00 0.00
3:53 am 03:53 Clear 72 22.2 56 13.3 57 57 ENE 3 6 29.90 1013 10 16 0.00 0.00
4:53 am 04:53 Clear 72 22.2 56 13.3 57 57 NE 3 6 29.91 1013 10 16 0.00 0.00
5:53 am 05:53 Clear 70 21.1 56 13.3 61 61 NNE 5 7 29.91 1013 10 16 0.00 0.00
6:53 am 06:53 Clear 68 20 57 13.9 68 68 N 7 11 29.93 1013 10 16 0.00 0.00
7:53 am 07:53 Sunny 71 21.7 57 13.9 61 61 ENE 5 7 29.92 1013 10 16 0.00 0.00
8:53 am 08:53 Sunny 79 26.1 58 14.4 49 49 Calm 29.93 1014 10 16 0.00 0.00
9:53 am 09:53 Sunny 83 28.3 60 15.6 46 46 SE 5 7 29.96 1014 10 16 0.00 0.00
10:53 am 10:53 Sunny 86 30 60 15.6 42 42 undefined N/A 29.96 1014 10 16 0.00 0.00
11:53 am 11:53 Sunny 90 32.2 59 15 35 35 VRB 3 6 29.96 1014 10 16 0.00 0.00
12:53 pm 12:53 Sunny 94 34.4 55 12.8 27 27 VRB 5 7 29.94 1014 10 16 0.00 0.00
1:53 pm 13:53 Sunny 97 36.1 54 12.2 24 24 SSE 9 15 29.92 1013 10 16 0.00 0.00
2:53 pm 14:53 Sunny 98 36.7 51 10.6 20 20 S 10 17 29.91 1013 10 16 0.00 0.00
3:53 pm 15:53 Sunny 99 37.2 49 9.4 18 18 ESE 14 22 29.89 1012 10 16 0.00 0.00
4:53 pm 16:53 Sunny 100 37.8 48 8.9 17 17 VRB 5 7 29.87 1011 10 16 0.00 0.00
5:53 pm 17:53 Sunny 99 37.2 48 8.9 18 18 VRB 5 7 29.85 1011 10 16 0.00 0.00
6:53 pm 18:53 Sunny 99 37.2 50 10 19 19 SE 10 17 29.84 1011 10 16 0.00 0.00
7:53 pm 19:53 Sunny 97 36.1 49 9.4 20 20 SSE 9 15 29.84 1010 10 16 0.00 0.00
8:53 pm 20:53 Clear 94 34.4 50 10 22 22 ESE 7 11 29.84 1011 10 16 0.00 0.00
9:53 pm 21:53 Clear 90 32.2 51 10.6 26 26 ESE 7 11 29.86 1011 10 16 0.00 0.00
10:53 pm 22:53 Clear 86 30 51 10.6 30 30 ESE 7 11 29.89 1012 10 16 0.00 0.00
11:53 pm 23:53 Mostly Cloudy 84 28.9 52 11.1 33 33 SE 6 9 29.91 1013 10 16 0.00 0.00

Powered by AerisWeather